Location: Newark
(34.0131°N, 4.3314°W)
Time: 04:57:36
(UTC+00:00)

Transit 2A Rocket - Pass Details

Date: 24 October 2019
Orbit: 594 x 909 km, 66.7° (Epoch: 11 November)

Event Time Altitude Azimuth Distance (km) Brightness Sun altitude
Rises 03:56:56 0° 210° (SSW) 3,277 - -32.2°
Reaches altitude 10° 03:59:27 10° 213° (SSW) 2,301 - -31.7°
Maximum altitude 04:04:41 70° 297° (WNW) 762 - -30.6°
Exits shadow 04:07:38 24° 17° (NNE) 1,430 6.6 -30.0°
Drops below altitude 10° 04:09:27 10° 21° (NNE) 2,109 7.6 -29.6°
Sets 04:11:41 0° 24° (NNE) 2,982 8.4 -29.2°
